When you browse on this site, cookies collect data to enhance your experience and personalize the content and advertising you see.
Visit our Privacy Policy to learn more. By continuing to use the site, you agree to this use of cookies and data.
  • In Österreich
  • Länderverzeichnis
  • Für 7 Tage
  • Wassertemperatur
  • Wetterkarte
  • News
  • Widgets
  • user-avatar
    Anmelden

    Stündliche Wetter Mayrhofen

    Heute, 22 Februar, Samstag

    Zeit Temperatur Niederschläge Wind Luftdruck Luftfeuchtigkeit
    00:00 -3°C° 0 mm 1 m/S 621 mmHg 60%
    01:00 -5°C° 0 mm 2 m/S 622 mmHg 53%
    02:00 -5°C° 0 mm 2 m/S 621 mmHg 51%
    03:00 -5°C° 0 mm 2 m/S 621 mmHg 50%
    04:00 -5°C° 0 mm 2 m/S 621 mmHg 49%
    05:00 -2°C° 0 mm 1 m/S 621 mmHg 50%
    06:00 -2°C° 0 mm 1 m/S 622 mmHg 50%
    07:00 -1°C° 0 mm 1 m/S 622 mmHg 49%
    08:00 +1°C° 0 mm 1 m/S 622 mmHg 56%
    09:00 +2°C° 0 mm 1 m/S 623 mmHg 63%
    10:00 +4°C° 0 mm 1 m/S 624 mmHg 71%
    11:00 +5°C° 0 mm 1 m/S 624 mmHg 72%
    12:00 +6°C° 0 mm 1 m/S 624 mmHg 73%
    13:00 +6°C° 0 mm 1 m/S 624 mmHg 75%
    14:00 +6°C° 0 mm 1 m/S 623 mmHg 74%
    15:00 +6°C° 0 mm 1 m/S 623 mmHg 73%
    16:00 +6°C° 0 mm 1 m/S 623 mmHg 72%
    17:00 +4°C° 0 mm 1 m/S 622 mmHg 68%
    18:00 +3°C° 0 mm 1 m/S 622 mmHg 63%
    19:00 +2°C° 0 mm 1 m/S 622 mmHg 58%
    20:00 +2°C° 0 mm 1 m/S 622 mmHg 57%
    21:00 +2°C° 0 mm 1 m/S 622 mmHg 56%
    22:00 +1°C° 0 mm 1 m/S 622 mmHg 54%
    23:00 +1°C° 0 mm 1 m/S 622 mmHg 54%

    Morgen, 23 Februar, Sonntag

    Zeit Temperatur Niederschläge Wind Luftdruck Luftfeuchtigkeit
    00:00 +1°C° 0 mm 1 m/S 622 mmHg 54%
    01:00 +1°C° 0 mm 1 m/S 622 mmHg 54%
    02:00 +1°C° 0 mm 1 m/S 622 mmHg 54%
    03:00 +1°C° 0 mm 1 m/S 621 mmHg 55%
    04:00 +1°C° 0 mm 1 m/S 621 mmHg 55%
    05:00 +1°C° 0 mm 1 m/S 621 mmHg 56%
    06:00 +1°C° 0 mm 1 m/S 621 mmHg 57%
    07:00 +1°C° 0 mm 1 m/S 621 mmHg 58%
    08:00 +3°C° 0 mm 1 m/S 621 mmHg 63%
    09:00 +4°C° 0 mm 1 m/S 621 mmHg 68%
    10:00 +5°C° 0 mm 1 m/S 621 mmHg 74%
    11:00 +6°C° 0 mm 1 m/S 621 mmHg 74%
    12:00 +7°C° 0 mm 1 m/S 621 mmHg 75%
    13:00 +8°C° 0 mm 1 m/S 621 mmHg 75%
    14:00 +7°C° 0 mm 1 m/S 620 mmHg 79%
    15:00 +7°C° 0 mm 1 m/S 620 mmHg 82%
    16:00 +6°C° 0 mm 1 m/S 619 mmHg 86%
    17:00 +4°C° 0 mm 2 m/S 619 mmHg 85%
    18:00 +4°C° 0 mm 2 m/S 619 mmHg 84%
    19:00 +3°C° 0 mm 2 m/S 619 mmHg 82%
    20:00 +2°C° 0 mm 2 m/S 619 mmHg 83%
    21:00 +2°C° 0 mm 2 m/S 618 mmHg 84%
    22:00 +2°C° 0 mm 2 m/S 618 mmHg 85%
    23:00 +1°C° 0.1 mm 2 m/S 618 mmHg 87%

    übermorgen, 24 Februar, Montag

    Zeit Temperatur Niederschläge Wind Luftdruck Luftfeuchtigkeit
    00:00 +1°C° 0.1 mm 2 m/S 618 mmHg 88%
    01:00 +1°C° 0.1 mm 2 m/S 618 mmHg 90%
    02:00 +1°C° 0.3 mm 2 m/S 618 mmHg 92%
    03:00 +1°C° 0.3 mm 2 m/S 618 mmHg 94%
    04:00 +1°C° 0.3 mm 2 m/S 618 mmHg 95%
    05:00 +1°C° 1 mm 2 m/S 619 mmHg 96%
    06:00 +1°C° 1 mm 2 m/S 619 mmHg 97%
    07:00 +1°C° 1 mm 2 m/S 619 mmHg 97%
    08:00 +2°C° 0.6 mm 2 m/S 620 mmHg 97%
    09:00 +2°C° 0.6 mm 2 m/S 620 mmHg 96%
    10:00 +3°C° 0.6 mm 1 m/S 620 mmHg 95%
    11:00 +4°C° 0.1 mm 1 m/S 619 mmHg 94%
    12:00 +5°C° 0.1 mm 1 m/S 619 mmHg 92%
    13:00 +4°C° 0.1 mm 0 m/S 619 mmHg 90%
    14:00 +5°C° 0 mm 1 m/S 619 mmHg 89%
    15:00 +6°C° 0 mm 1 m/S 618 mmHg 88%
    16:00 +5°C° 0 mm 2 m/S 618 mmHg 87%
    17:00 +4°C° 0 mm 2 m/S 617 mmHg 87%
    18:00 +3°C° 0 mm 2 m/S 617 mmHg 86%
    19:00 +2°C° 0 mm 2 m/S 616 mmHg 85%
    20:00 +1°C° 0 mm 2 m/S 616 mmHg 85%
    21:00 +1°C° 0 mm 2 m/S 616 mmHg 84%
    22:00 +1°C° 0 mm 2 m/S 615 mmHg 84%
    23:00 +2°C° 0 mm 1 m/S 615 mmHg 84%

    25 Februar, Dienstag

    Zeit Temperatur Niederschläge Wind Luftdruck Luftfeuchtigkeit
    00:00 +1°C° 0 mm 1 m/S 615 mmHg 85%
    01:00 +1°C° 0 mm 1 m/S 614 mmHg 86%
    02:00 +1°C° 0 mm 1 m/S 614 mmHg 87%
    03:00 -1°C° 0 mm 2 m/S 613 mmHg 88%
    04:00 -1°C° 0 mm 2 m/S 613 mmHg 89%
    05:00 -1°C° 0 mm 2 m/S 613 mmHg 89%
    06:00 +1°C° 0 mm 1 m/S 613 mmHg 89%
    07:00 +1°C° 0 mm 1 m/S 612 mmHg 90%
    08:00 +2°C° 0 mm 1 m/S 612 mmHg 89%
    09:00 +3°C° 0 mm 1 m/S 612 mmHg 88%
    10:00 +3°C° 0 mm 1 m/S 612 mmHg 87%
    11:00 +3°C° 0 mm 2 m/S 611 mmHg 86%
    12:00 +3°C° 0 mm 2 m/S 611 mmHg 86%
    13:00 +3°C° 0 mm 2 m/S 610 mmHg 85%
    14:00 +3°C° 0 mm 2 m/S 610 mmHg 86%
    15:00 +2°C° 0 mm 2 m/S 609 mmHg 87%
    16:00 +2°C° 0 mm 2 m/S 609 mmHg 87%
    17:00 +1°C° 0.1 mm 2 m/S 608 mmHg 90%
    18:00 +1°C° 0.1 mm 2 m/S 608 mmHg 92%
    19:00 +1°C° 0.1 mm 1 m/S 608 mmHg 95%
    20:00 +1°C° 0.2 mm 1 m/S 607 mmHg 95%
    21:00 0°C° 0.2 mm 1 m/S 607 mmHg 95%
    22:00 0°C° 0.2 mm 1 m/S 607 mmHg 95%
    23:00 0°C° 0.4 mm 1 m/S 607 mmHg 95%

    26 Februar, Mittwoch

    Zeit Temperatur Niederschläge Wind Luftdruck Luftfeuchtigkeit
    00:00 0°C° 0.4 mm 1 m/S 606 mmHg 96%
    01:00 -1°C° 0.4 mm 1 m/S 606 mmHg 96%
    02:00 -1°C° 0.8 mm 1 m/S 606 mmHg 96%
    03:00 -1°C° 0.8 mm 1 m/S 605 mmHg 96%
    04:00 -1°C° 0.8 mm 1 m/S 605 mmHg 96%
    05:00 -2°C° 0.4 mm 1 m/S 604 mmHg 96%
    06:00 -3°C° 0.4 mm 1 m/S 603 mmHg 95%
    07:00 -4°C° 0.4 mm 1 m/S 603 mmHg 94%
    08:00 -3°C° 0.2 mm 1 m/S 603 mmHg 91%
    09:00 -5°C° 0.2 mm 2 m/S 603 mmHg 88%
    10:00 -4°C° 0.2 mm 2 m/S 603 mmHg 85%
    11:00 -4°C° 0.6 mm 2 m/S 602 mmHg 81%
    12:00 -5°C° 0.6 mm 3 m/S 602 mmHg 77%
    13:00 -5°C° 0.6 mm 3 m/S 601 mmHg 73%
    14:00 -6°C° 0.2 mm 3 m/S 601 mmHg 74%
    15:00 -6°C° 0.2 mm 3 m/S 601 mmHg 75%
    16:00 -7°C° 0.2 mm 3 m/S 601 mmHg 76%
    17:00 -8°C° 0.6 mm 3 m/S 602 mmHg 80%
    18:00 -9°C° 0.6 mm 3 m/S 603 mmHg 84%
    19:00 -10°C° 0.6 mm 3 m/S 603 mmHg 88%
    20:00 -12°C° 0.3 mm 3 m/S 604 mmHg 88%
    21:00 -12°C° 0.3 mm 3 m/S 605 mmHg 88%
    22:00 -13°C° 0.3 mm 3 m/S 605 mmHg 88%
    23:00 -12°C° 0 mm 2 m/S 605 mmHg 89%

    27 Februar, Donnerstag

    Zeit Temperatur Niederschläge Wind Luftdruck Luftfeuchtigkeit
    00:00 -13°C° 0 mm 2 m/S 606 mmHg 89%
    01:00 -13°C° 0 mm 2 m/S 606 mmHg 89%
    02:00 -13°C° 0.3 mm 2 m/S 606 mmHg 89%
    03:00 -12°C° 0.3 mm 2 m/S 607 mmHg 90%
    04:00 -12°C° 0.3 mm 2 m/S 608 mmHg 90%
    05:00 -12°C° 0.6 mm 2 m/S 608 mmHg 91%
    06:00 -10°C° 0.6 mm 2 m/S 609 mmHg 91%
    07:00 -10°C° 0.6 mm 2 m/S 609 mmHg 92%
    08:00 -9°C° 0.3 mm 2 m/S 610 mmHg 85%
    09:00 -9°C° 0.3 mm 2 m/S 611 mmHg 78%
    10:00 -8°C° 0.3 mm 2 m/S 612 mmHg 71%
    11:00 -7°C° 0.1 mm 2 m/S 612 mmHg 66%
    12:00 -7°C° 0.1 mm 2 m/S 612 mmHg 61%
    13:00 -6°C° 0.1 mm 2 m/S 613 mmHg 56%
    14:00 -6°C° 0 mm 2 m/S 613 mmHg 55%
    15:00 -4°C° 0 mm 1 m/S 612 mmHg 54%
    16:00 -4°C° 0 mm 1 m/S 612 mmHg 52%
    17:00 -6°C° 0 mm 1 m/S 612 mmHg 56%
    18:00 -7°C° 0 mm 1 m/S 612 mmHg 61%
    19:00 -10°C° 0 mm 2 m/S 611 mmHg 65%
    20:00 -9°C° 0.1 mm 2 m/S 612 mmHg 67%
    21:00 -8°C° 0.1 mm 2 m/S 612 mmHg 69%
    22:00 -9°C° 0.1 mm 3 m/S 612 mmHg 71%
    23:00 -9°C° 0.6 mm 3 m/S 612 mmHg 75%
    Mehr zeigen